Sheringham Point, British Columbia

9:56 AM PDT on May 24, 2017 (GMT -0700)
Sheringham Point

Weather History for CWSP - October, 2013

Change the Weather History Date:

Monday, October 28, 2013

  Actual Average Record
Temperature  
Mean Temperature 54 °F -  
Max Temperature 57 °F - - ()
Min Temperature 50 °F - - ()
Degree Days  
Heating Degree Days 12    
Growing Degree Days 4 (Base 50)    
Moisture  
Dew Point 32 °F    
Average Humidity 43    
Maximum Humidity 62    
Minimum Humidity 32    
Precipitation  
Precipitation 0.00 in - - ()
Sea Level Pressure  
Sea Level Pressure 29.97 in    
Wind  
Wind Speed 8 mph ()    
Max Wind Speed 24 mph    
Max Gust Speed 33 mph    
T = Trace of Precipitation, MM = Missing Value Source: Averaged Metar Reports

Daily Weather History Graph

Daily Weather History Graph

Search for Another Location

Airport or City:

Trip Planner

Search our weather history database for the weather conditions in past years. The results will help you decide how hot, cold, wet, or windy it might be!

Date:

Astronomy

Oct. 28, 2013 Rise Set
Actual Time 7:55 AM PDT 6:02 PM PDT
Civil Twilight 7:23 AM PDT 6:34 PM PDT
Nautical Twilight 6:46 AM PDT 7:11 PM PDT
Astronomical Twilight 6:10 AM PDT 7:47 PM PDT
Moon 1:27 AM PDT (10/28) 3:11 PM PDT (10/28)
Length of Visible Light 11h 11m
Length of Day
10h 06m
Waning Crescent, 33% of the Moon is Illuminated
Oct 28
Waning Crescent
Nov 3
New
Nov 9
First Quarter
Nov 17
Full
Nov 25
Last Quarter

Hourly Weather History & Observations

Time (PDT) Temp. Dew Point Humidity Pressure Visibility Wind Dir Wind Speed Gust Speed Precip Events Conditions
12:00 AM 54.9 °F 38.5 °F 54% 30.00 in - East 3.5 mph - N/A   Unknown
1:00 AM 54.9 °F 37.2 °F 51% 30.01 in - East 3.5 mph - N/A   Unknown
2:00 AM 52.0 °F 34.9 °F 52% 30.00 in - East 5.8 mph - N/A   Unknown
3:00 AM 52.9 °F 34.0 °F 49% 30.00 in - East 6.9 mph - N/A   Unknown
4:00 AM 52.9 °F 32.0 °F 45% 30.00 in - East 10.4 mph - N/A   Unknown
5:00 AM 53 °F 32 °F 32% 29.98 in - East 8.1 mph - -  
5:00 AM 52.7 °F 31.6 °F 45% 29.98 in - East 8.1 mph 18.4 mph N/A   Unknown
6:00 AM 52.7 °F 29.8 °F 42% 29.99 in - East 5.8 mph - N/A   Unknown
7:00 AM 53.1 °F 31.5 °F 44% 29.98 in - ESE 11.5 mph - N/A   Unknown
8:00 AM 52.5 °F 28.2 °F 39% 29.99 in - ENE 4.6 mph - N/A   Unknown
9:00 AM 53.8 °F 30.2 °F 41% 30.01 in - East 5.8 mph - N/A   Unknown
10:00 AM 55.6 °F 28.4 °F 35% 30.00 in - East 10.4 mph 18.4 mph N/A   Unknown
11:00 AM 54.9 °F 29.7 °F 38% 29.99 in - East 18.4 mph 24.2 mph N/A   Unknown
12:00 PM 55.6 °F 29.3 °F 37% 29.98 in - East 18.4 mph 26.5 mph N/A   Unknown
1:00 PM 55.4 °F 31.3 °F 40% 29.95 in - East 24.2 mph - N/A   Unknown
2:00 PM 56.3 °F 29.8 °F 36% 29.94 in - East 24.2 mph 33.4 mph N/A   Unknown
3:00 PM 52.5 °F 37.9 °F 58% 29.94 in - SE 16.1 mph - N/A   Unknown
4:00 PM 52.3 °F 39.6 °F 62% 29.94 in - SE 17.3 mph - N/A   Unknown
5:00 PM 53 °F 38 °F 46% 29.94 in - East 10.4 mph - -  
5:00 PM 53.4 °F 38.1 °F 56% 29.94 in - East 10.4 mph - N/A   Unknown
6:00 PM 53.2 °F 31.3 °F 43% 29.95 in - East 5.8 mph - N/A   Unknown
7:00 PM 53.1 °F 30.0 °F 41% 29.95 in - East 6.9 mph - N/A   Unknown
8:00 PM 52.5 °F 28.0 °F 39% 29.95 in - ENE 6.9 mph - N/A   Unknown
9:00 PM 53.2 °F 26.4 °F 35% 29.96 in - East 6.9 mph - N/A   Unknown
10:00 PM 53.2 °F 24.8 °F 33% 29.96 in - ENE 5.8 mph - N/A   Unknown
11:00 PM 50 °F 29 °F 32% 29.97 in - East 2.3 mph - -  
11:00 PM 50.2 °F 29.3 °F 45% 29.97 in - East 2.3 mph - N/A   Unknown